KB1JDX Weather Reports


time (UTC)temp
F
wind
direction
speed
knots
gust
knots
rain 1hr
in
rain 24hr
in
rain mn
in
humidity
%
barometer
mb
20260504232035 61 229 0.0 12.2 0.00 0.00 0.00 54 1009.2
20260504231926 61 236 0.0 12.2 0.00 0.00 0.00 54 1009.2
20260504230034 63 165 3.5 18.2 0.00 0.00 0.00 51 1009.0
20260504224035 64 219 0.0 18.2 0.00 0.00 0.00 48 1008.9
20260504222034 64 209 3.5 18.2 0.00 0.00 0.00 48 1008.9
20260504221926 64 201 0.0 18.2 0.00 0.00 0.00 48 1008.8
20260504220035 65 180 4.3 18.2 0.00 0.00 0.00 46 1008.7
20260504214033 66 171 0.0 18.2 0.00 0.00 0.00 44 1008.6
20260504212033 67 220 10.4 18.2 0.00 0.00 0.00 42 1008.5
20260504211926 67 218 6.1 18.2 0.00 0.00 0.00 42 1008.5
20260504210033 67 190 0.0 20.9 0.00 0.00 0.00 41 1008.4
20260504204033 68 198 4.3 20.9 0.00 0.00 0.00 40 1008.4
20260504202033 68 165 4.3 20.9 0.00 0.00 0.00 40 1008.3
20260504201926 68 177 0.0 20.9 0.00 0.00 0.00 40 1008.4
20260504200033 69 163 0.0 16.5 0.00 0.00 0.00 36 1008.3
20260504194033 70 167 0.0 16.5 0.00 0.00 0.00 35 1008.3
20260504192033 69 224 16.5 16.5 0.00 0.00 0.00 34 1008.3
20260504191926 69 200 9.6 16.5 0.00 0.00 0.00 35 1008.2
20260504190033 69 178 0.0 20.9 0.00 0.00 0.00 34 1008.4
20260504184035 69 247 0.0 20.9 0.00 0.00 0.00 33 1008.6
20260504182035 69 220 2.6 20.9 0.00 0.00 0.00 34 1008.9
20260504181926 69 232 4.3 20.9 0.00 0.00 0.00 34 1008.9
20260504180034 68 230 11.3 16.5 0.00 0.00 0.00 35 1009.1
20260504174034 68 228 1.7 16.5 0.00 0.00 0.00 35 1009.2
20260504172032 68 237 4.3 16.5 0.00 0.00 0.00 34 1009.1
20260504171926 68 189 4.3 16.5 0.00 0.00 0.00 34 1009.2
20260504090128 37 291 0.0 0.0 0.00 0.00 0.00 57 1011.8
20260504081926 38 291 0.0 0.0 0.00 0.00 0.00 55 1011.4
20260504044033 35 291 0.0 0.0 0.00 0.00 0.00 53 1011.8
20260504042033 36 291 0.0 0.0 0.00 0.00 0.00 55 1011.7
20260504041926 36 291 0.0 0.0 0.00 0.00 0.00 55 1011.5
20260504040033 36 291 0.0 0.0 0.00 0.00 0.00 57 1011.4
20260504034032 37 291 0.0 0.0 0.00 0.00 0.00 59 1011.2
20260504032032 37 291 0.0 0.0 0.00 0.00 0.00 63 1011.3
20260504031925 37 291 0.0 0.0 0.00 0.00 0.00 63 1011.3
20260504030032 38 291 0.0 0.0 0.00 0.00 0.00 66 1011.1
20260504024033 38 291 0.0 0.0 0.00 0.00 0.00 67 1011.0
20260504022032 39 291 0.0 0.0 0.00 0.00 0.00 69 1010.8
20260504021926 39 291 0.0 0.0 0.00 0.00 0.00 69 1010.8
20260504020033 40 291 0.0 0.0 0.00 0.00 0.00 70 1010.7
20260504014033 41 291 0.0 0.0 0.00 0.00 0.00 69 1010.6
20260504011926 42 291 0.0 0.0 0.00 0.00 0.00 66 1010.4
20260504010033 44 291 0.0 0.0 0.00 0.00 0.00 63 1010.0
20260504004034 45 291 0.0 0.0 0.00 0.00 0.00 57 1009.6
20260504002033 47 291 0.0 0.0 0.00 0.00 0.00 53 1009.4
20260504001926 48 291 0.0 0.0 0.00 0.00 0.00 53 1009.4
20260504000033 50 291 0.0 7.0 0.00 0.00 0.00 49 1009.3
20260503234034 51 291 0.0 7.0 0.00 0.00 0.00 45 1009.1